Location: Newark
(9.4667°S, 159.8167°E)
Time: 08:16:53
(UTC+00:00)

Explorer 7 - Pass Details

Date: 16 November 2019
Orbit: 485 x 680 km, 50.3° (Epoch: 13 December)

Event Time Altitude Azimuth Distance (km) Brightness Sun altitude
Rises 09:44:38 0° 196° (SSW) 3,013 11.2 -33.0°
Reaches altitude 10° 09:47:29 10° 180° (S) 2,111 10.1 -33.6°
Enters shadow 09:47:53 12° 177° (S) 2,006 9.9 -33.7°
